Location: Isles
(48.9125°N, 2.8272°E)
Time: 11:05:44
(UTC+00:00)

Cosmos 2333 Rocket - Pass Details

Date: 03 February 2023
Orbit: 837 x 864 km, 70.8° (Epoch: 28 March)

Event Time Altitude Azimuth Distance (km) Brightness Sun altitude
Rises 18:11:39 0° 178° (S) 3,377 5.4 -13.8°
Reaches altitude 10° 18:14:15 10° 170° (S) 2,449 4.6 -14.2°
Maximum altitude 18:19:16 34° 106° (ESE) 1,347 2.8 -15.0°
Enters shadow 18:22:24 20° 56° (NE) 1,865 3.5 -15.5°
